www.pogodaiklimat.ru

Погода и климат >> Архив погоды >> Индия >> Раджастхан >> Аэропорт Махараны Пратапа


ПОГОДА в Аэропорту Махараны Пратапа

  • Прогноз погоды в Аэропорту Махараны Пратапа
  • Монитор погоды в Аэропорту Махараны Пратапа

АРХИВ ПОГОДЫ в Аэропорту Махараны Пратапа

Время (UTC), дата Ветер
(напр.,м/с)
 
Видим.   Явления Облачность Т
(С)
Тd
(С)
f
(%)
Тe
(С)
Тes
(С)
Комфортность P
(гПа)
Po
(гПа)
Тmin
(С)
Tmax
(С)
R
(мм)
R24
(мм)
S
(см)
18 12.06 С 4 4000 м гроза, ливневой дождь 9/6 750 м
[Cb cap As op]
+26.0 +23.7 87 +35 +35 очень
душно
1001.1 944.6 2
21 12.06 В 3 4000 м мгла 9/6 750 м
[Sc diur, vesp As op]
+25.6 +23.3 87 +34 +34 очень
душно
1001.5 945.0 2
00 13.06 штиль 0 4000 м мгла {гроза, дождь} 6/4 750 м
[Sc As op]
+26.0 +23.7 87 +35 +35 очень
душно
1001.1 944.6 2
03 13.06 Ю 2 4000 м слаб. дождь 10/4 750 м
[Sc As op]
+26.4 +23.6 85 +36 +37 очень
душно
1003.6 947.1 +25.6 +39.4 3
06 13.06 Ю 2 2000 м мгла 10/5 600 м
[Sc As op]
+30.8 +24.1 68 +43 +45 опасность
перегрева
1002.9 947.2
12 13.06 З 1 4000 м мгла 3/3 900 м
[Sc]
+33.4 +19.7 45 +39 +42 очень
душно
998.4 943.4 +34.5
18 13.06 З 2 4000 м мгла 5/0
[Ac trans]
+31.0 +19.2 49 +36 +36 очень
душно
1001.6 946.0
00 14.06 З 1 4000 м мгла 1/0
[Ac trans]
+27.4 +21.3 69 +35 +35 очень
душно
1001.1 945.0
03 14.06 З 3 4000 м мгла 6/3 900 м
[Sc Ac trans]
+30.2 +19.6 53 +36 +39 очень
душно
1002.2 946.6 +27.0 +34.5
06 14.06 ЮЗ 3 4000 м мгла 3/0
[Ac trans]
+33.8 +19.4 43 +39 +53 опасность
солнечного
удара
1001.3 946.2
12 14.06 ЮЗ 2 4000 м мгла 5/3 900 м
[Sc Ac trans]
+37.2 +18.7 34 +41 +43 опасность
перегрева
996.8 942.7 +37.8
18 14.06 З 3 4000 м 4/4 900 м
[Sc]
+32.2 +20.6 50 +39 +39 очень
душно
1000.9 945.7
00 15.06 ЮЗ 3 4000 м мгла 4/4 1050 м
[Sc]
+28.8 +20.0 59 +35 +35 очень
душно
1001.1 945.1
03 15.06 ЮЗ 3 4000 м 3/0
[Ac trans]
+30.0 +21.0 59 +38 +42 очень
душно
1002.8 946.9 +28.2 +37.8
06 15.06 ЮЗ 5 4000 м 1/0
[Ac trans]
+33.4 +21.4 49 +41 +51 опасность
перегрева
1001.4 946.3
12 15.06 ЮЗ 4 4000 м мгла 6/6 900 м
[Sc diur, vesp]
+36.2 +20.4 40 +43 +44 опасность
перегрева
997.9 943.5 +37.4
18 15.06 ЮЗ 3 4000 м мгла 6/3 900 м
[Sc Ac trans]
+30.4 +22.1 61 +39 +39 очень
душно
1002.8 947.2
21 15.06 Ю 3 4000 м мгла 6/3 900 м
[Sc Ac trans]
+29.2 +21.7 64 +37 +37 очень
душно
1002.2 946.4
00 16.06 ЮЗ 4 4000 м мгла 3/0
[Ac trans]
+28.0 +22.3 71 +37 +37 очень
душно
1001.2 945.3
03 16.06 З 4 4000 м 9/4 900 м
[Sc Ac trans]
+29.0 +23.4 72 +39 +41 очень
душно
1003.6 947.5 +27.6 +37.4
06 16.06 З 5 4000 м 6/4 900 м
[Sc Ac trans]
+32.6 +20.4 49 +39 +45 очень
душно
1002.8 947.4
12 16.06 З 3 4000 м мгла 3/3 900 м
[Sc]
+36.2 +16.6 31 +39 +41 очень
душно
999.8 944.7 +36.4
18 16.06 З 4 4000 м мгла 6/6 900 м
[Sc diur, vesp]
+29.8 +21.8 62 +38 +38 очень
душно
1003.6 947.7
21 16.06 ЮЗ 2 4000 м мгла 5/5 900 м
[Sc diur, vesp]
+28.6 +21.7 66 +37 +37 очень
душно
1002.3 946.3
00 17.06 штиль 0 4000 м мгла 6/6 900 м
[Sc diur, vesp]
+26.8 +22.8 79 +36 +36 очень
душно
1003.4 947.0
03 17.06 З 4 4000 м мгла 3/3 600 м
[Sc]
+29.0 +20.9 62 +36 +40 очень
душно
1003.9 947.8 +25.5 +36.4
06 17.06 ЮЗ 5 4000 м мгла 5/5 900 м
[Sc]
+32.8 +19.6 46 +39 +44 очень
душно
1003.2 947.8
12 17.06 ЮЗ 6 4000 м мгла 8/8 900 м
[Sc diur, vesp]
+34.0 +19.3 42 +39 +40 очень
душно
999.0 944.2 +36.2
18 17.06 ЮЗ 4 4000 м мгла 8/5 900 м
[Sc diur, vesp Ac trans]
+28.0 +22.6 73 +37 +37 очень
душно
1003.3 947.2
21 17.06 ЮЗ 4 4000 м мгла 6/6 900 м
[Sc diur, vesp]
+27.6 +22.8 75 +37 +37 очень
душно
1001.7 945.5
00 18.06 ЮЗ 4 4000 м мгла 6/6 900 м
[Sc diur, vesp]
+26.6 +22.0 76 +34 +34 очень
душно
1001.4 945.0
03 18.06 Ю 5 4000 м мгла 8/8 900 м
[Sc diur, vesp]
+28.0 +21.6 68 +36 +36 очень
душно
1002.2 946.0 +26.4 +36.2
06 18.06 Ю 4 4000 м мгла 9/5 750 м
[Sc diur, vesp As op]
+29.4 +21.6 63 +37 +40 очень
душно
1001.4 945.7
12 18.06 ЮВ 2 1000 м слаб. морось {гроза, дождь} 9/6 750 м
[Sc diur, vesp As op]
+24.4 +24.1 98 +34 +34 очень
душно
999.4 942.9 +29.6 21
18 18.06 Ю 2 1000 м гроза с градом 10/6 600 м
[Cb cap As op]
+24.4 +24.4 100 +34 +34 очень
душно
999.0 942.5 79
21 18.06 СЗ 3 2000 м дымка {гроза} 10/6 750 м
[Cu Sc As op]
+24.4 +24.4 100 +34 +34 очень
душно
998.0 941.5 133
00 19.06 С 2 2000 м слаб. морось {гроза, дождь} 10/6 750 м
[Cu Sc As op]
+24.0 +24.0 100 +33 +33 очень
душно
999.2 942.5 139
03 19.06 СВ 3 2000 м дымка 10/8 600 м
[Sc diur, vesp As op]
+22.6 +22.0 96 +30 +30 очень
душно
1002.4 945.2 +22.4 +29.6 140
06 19.06 СВ 2 4000 м 5/5 900 м
[Sc diur, vesp]
+27.2 +24.0 83 +38 +48 очень
душно
1001.7 945.5
12 19.06 ЮВ 2 4000 м мгла 8/4 900 м
[Sc Ac trans]
+28.4 +23.0 73 +38 +39 очень
душно
999.4 946.5 +30.2

 

Местоположение метеостанции Аэропорт Махараны Пратапа (Раджастхан, Индия): широта 24.62 долгота 73.88 высота над уровнем моря 514 м.

В архиве по умолчанию представлена погода в Аэропорту Махараны Пратапа за последнюю неделю. Архивные данные за месяц целиком и за предыдущие месяцы, начиная с января 2011 года, Вы можете получить, выбрав интересующий диапазон дат из раскрывающегося списка и нажав кнопку "Ввод!".


*Определитесь, кто Вы:
робот инопланетянин человек

Внимание! Время в таблицах - всемирное. Для получения местного времени необходимо прибавить поправку, которая равна 5.5 ч.

Смотрите также архив погоды в соседних городах и на ближайших метеорологических станциях:

Погода в Читторгархе (Раджастхан, Индия) (81 км)
Погода в Бхилваре (Раджастхан, Индия) (111 км)
Погода в Манут-Абу (Раджастхан, Индия) (117 км)
Погода в Дисе (Гуджарат, Индия) (176 км)
Погода в Ратламе (Мадхья-Прадеш, Индия) (187 км)
Погода в Гандинагаре (Гуджарат, Индия) (194 км)
Погода в Джодхпуре (Раджастхан, Индия) (206 км)
Погода в Коте (Раджастхан, Индия) (207 км)
Погода в Ахмедабаде (Гуджарат, Индия) (214 км)
Погода в Аджмере (Раджастхан, Индия) (217 км)

Пояснения к столбцам:

Ветер - указаны скорость ветра в м/с - средняя за 10 мин, порывы в срок и между сроками (в фигурных скобках) и направление, откуда дует ветер: С - северный, СВ - северо-восточный, В - восточный, ЮВ - юго-восточный, Ю - южный, ЮЗ - юго-западный, З - западный, СЗ - северо-западный.
Видимость - горизонтальная дальность видимости в метрах или километрах. При видимости от 1 до 10 км при отсутствии осадков обычно наблюдается дымка, при ухудшении видимости до 1 км и менее - туман. В сухую погоду видимость может ухудшаться дымом, пылью или мглою.
Явления - указаны атмосферные явления, наблюдавшиеся в срок или в последний час перед сроком; фигурными скобками обозначены явления, наблюдавшиеся между сроками (за 1-3 часа до срока); квадратными скобками обозначены град или гололедные отложения с указанием их диаметра в мм.
Облачность - указаны через наклонную черту общая и нижняя облачность в баллах и высота нижней границы облаков в метрах; квадратными скобками обозначены формы облаков: Ci - перистые, Cs - перисто-слоистые, Cc - перисто-кучевые, Ac - высококучевые, As - высокослоистые, Sc - слоисто-кучевые, Ns - слоисто-дождевые, Cu - кучевые, Cb - кучево-дождевые. Подробнее классификацию облаков см. в Атласе облаков (PDF).
T - Температура воздуха - температура, измеренная на высоте 2 м над землей.
Td - Температура точки росы - температура, при понижении до которой содержащийся в воздухе водяной пар достигнет насыщения.
f - Относительная влажность воздуха - влажноcть воздуха, измеренная на высоте 2 м над землей.
Te - Эффективная температура - температура, которую ощущает одетый по сезону человек в тени. Характеристика душности погоды. При расчете учитывается влияние влажности воздуха и скорости ветра на теплоощущения человека.
Tes - Эффективная температура на солнце - температура, которую ощущает человек, с поправкой на солнечный нагрев. Характеристика знойности погоды. Зависит от высоты солнца над горизонтом, облачности и скорости ветра. Ночью, в пасмурную погоду, а также при ветре 12 м/с и более поправка равна нулю.
P - Атмосферное давление - приведенное к уровню моря атмосферное давление.
Po - Атмосферное давление - измеренное на уровне метеостанции атмосферное давление.
Tmin - Минимальная температура - минимум температуры воздуха на высоте 2 м над землей.
Tmax - Максимальная температура - максимум температуры воздуха на высоте 2 м над землей.
R - Количество осадков - Количество выпавших осадков за период времени, мм. При наведении курсора мыши на число - период времени, за который выпало указанное количество осадков.
R24 - Количество осадков - Количество выпавших осадков за 24 часа, мм.
S - Снежный покров - Высота снежного покрова, см. При наведении курсора мыши на число - состояние снежного покрова и степень покрытия местности в баллах.